Location: Elko Observing site
(32.3606°N, 83.7235°W)
Time: 09:33:08
(UTC-04:00)

Tiangong 2 - Visible Passes

Search period start: 21 March 2019 00:00
Search period end: 31 March 2019 00:00
Orbit: 379 x 390 km, 42.8° (Epoch: 21 March)

Date Brightness Start Highest point End Pass type
(mag) Time Alt. Az. Time Alt. Az. Time Alt. Az.
21 Mar 3.1 06:16:09 17° NNW 06:17:43 25° NNE 06:20:25 10° E visible
22 Mar 4.4 05:19:39 13° NE 05:19:39 13° NE 05:20:19 10° ENE visible
22 Mar 1.1 06:51:57 10° WNW 06:55:08 79° NNE 06:58:19 10° ESE visible
23 Mar 2.2 05:55:32 40° NNE 05:55:36 40° NNE 05:58:37 10° E visible
24 Mar 1.4 06:31:34 28° W 06:32:50 47° SW 06:35:54 10° SE visible
25 Mar 3.6 05:35:32 18° ESE 05:35:32 18° ESE 05:36:31 10° ESE visible
26 Mar 3.2 06:11:57 16° S 06:11:57 16° S 06:12:57 10° SSE visible
27 Mar 3.9 21:39:30 10° SW 21:39:44 12° SW 21:39:44 12° SW visible
28 Mar 2.4 20:40:35 10° SSW 20:43:06 22° SE 20:44:01 20° ESE visible
29 Mar 1.0 21:16:59 10° WSW 21:20:07 77° NNW 21:20:23 69° NNE visible
30 Mar 1.4 20:17:34 10° SW 20:20:35 48° SE 20:23:37 10° ENE visible
30 Mar 3.6 21:54:48 10° WNW 21:56:32 21° NW 21:56:32 21° NW visible
